Tracking 22879 objects as of 23-Apr-2021
HD Live streaming from Space Station
objects crossing your sky now

ARIANE 5 R/B

Track ARIANE 5 R/B now!


NORAD ID: 40876
Int'l Code: 2015-039C
Perigee: 244.8 km
Apogee: 34,547.8 km
Inclination: 5.5 °
Period: 607.8 minutes
Semi major axis: 23767 km
RCS: Unknown
Launch date: August 20, 2015
Source: France (FR)
Launch site: FRENCH GUIANA (FRGUI)

Note: This is a ROCKET BODY
aabbcc
Your satellite tracking list
Your tracking list is empty




NASA's NSSDC Master Catalog

Two Line Element Set (TLE):
1 40876U 15039C   21112.26175755  .00003695  00000-0  78365-3 0  9993
2 40876   5.4999 298.6810 7216421 133.2585 315.0040  2.36937118 48361
Source of the keplerian elements: AFSPC